FLI1411 EKVG-BIAR

Flight info

Callsign FLI1411
Flight time 1h 7m
Altitude 36000
Route MY DCT MAMEP MAMEP1M
Aircraft A320/M-SDE3FGHIRWY/LB1

Departure

Time 2026-04-27 13:37
Airport Vágar Airport (EKVG)

Arrival

Time 2026-04-27 14:44
Airport Akureyri International Airport (BIAR)
Time Latitude Longitude Altitude Speed Heading
2026-04-27 13:13 62.06710 -7.28039 279 ft 0 kts 73°
2026-04-27 13:31 62.06709 -7.28022 282 ft 2 kts 105°
2026-04-27 13:32 62.06685 -7.28034 279 ft 5 kts 209°
2026-04-27 13:32 62.06638 -7.28082 279 ft 10 kts 197°
2026-04-27 13:32 62.06548 -7.28109 278 ft 16 kts 197°
2026-04-27 13:32 62.06459 -7.28112 285 ft 13 kts 133°
2026-04-27 13:33 62.06415 -7.27945 283 ft 13 kts 118°
2026-04-27 13:33 62.06368 -7.27755 290 ft 16 kts 118°
2026-04-27 13:33 62.06311 -7.27525 285 ft 20 kts 118°
2026-04-27 13:33 62.06234 -7.27222 281 ft 26 kts 118°
2026-04-27 13:34 62.06141 -7.26849 268 ft 30 kts 118°
2026-04-27 13:34 62.06046 -7.26463 254 ft 29 kts 118°
2026-04-27 13:34 62.05975 -7.26178 244 ft 15 kts 118°
2026-04-27 13:34 62.05928 -7.26039 241 ft 7 kts 127°
2026-04-27 13:35 62.05947 -7.26012 241 ft 3 kts 322°
2026-04-27 13:35 62.05948 -7.26062 241 ft 3 kts 280°
2026-04-27 13:35 62.05954 -7.26090 241 ft 0 kts 297°
2026-04-27 13:36 62.06015 -7.26338 249 ft 57 kts 298°
2026-04-27 13:36 62.06315 -7.27543 287 ft 125 kts 298°
2026-04-27 13:36 62.06815 -7.29522 377 ft 168 kts 297°
2026-04-27 13:37 62.07331 -7.31637 1274 ft 158 kts 290°
2026-04-27 13:37 62.07669 -7.33833 2121 ft 157 kts 278°
2026-04-27 13:37 62.07895 -7.36242 2554 ft 175 kts 279°
2026-04-27 13:37 62.08150 -7.38944 2894 ft 198 kts 279°
2026-04-27 13:38 62.08445 -7.42017 3245 ft 223 kts 279°
2026-04-27 13:38 62.08783 -7.45445 3763 ft 245 kts 281°
2026-04-27 13:38 62.09264 -7.49028 4338 ft 254 kts 285°
2026-04-27 13:38 62.09791 -7.52609 5338 ft 256 kts 285°
2026-04-27 13:39 62.10332 -7.56263 6295 ft 259 kts 289°
2026-04-27 13:39 62.11184 -7.59709 7191 ft 264 kts 304°
2026-04-27 13:39 62.12427 -7.62647 8102 ft 268 kts 312°
2026-04-27 13:39 62.13723 -7.65471 8981 ft 271 kts 312°
2026-04-27 13:40 62.15050 -7.68380 9853 ft 275 kts 312°
2026-04-27 13:40 62.16409 -7.71367 10586 ft 284 kts 312°
2026-04-27 13:40 62.17833 -7.74502 10862 ft 307 kts 312°
2026-04-27 13:40 62.19365 -7.77889 11332 ft 320 kts 312°
2026-04-27 13:41 62.20908 -7.81311 12059 ft 325 kts 313°
2026-04-27 13:41 62.22485 -7.84812 12853 ft 328 kts 313°
2026-04-27 13:41 62.24076 -7.88347 13647 ft 330 kts 313°
2026-04-27 13:41 62.25676 -7.91910 14387 ft 333 kts 313°
2026-04-27 13:42 62.27296 -7.95527 15073 ft 336 kts 313°
2026-04-27 13:42 62.28928 -7.99174 15758 ft 339 kts 313°
2026-04-27 13:42 62.30571 -8.02854 16447 ft 341 kts 313°
2026-04-27 13:42 62.32203 -8.06512 17111 ft 344 kts 312°
2026-04-27 13:43 62.33876 -8.10267 17789 ft 347 kts 313°
2026-04-27 13:43 62.35540 -8.14000 18453 ft 349 kts 312°
2026-04-27 13:43 62.37234 -8.17807 19049 ft 352 kts 312°
2026-04-27 13:43 62.38920 -8.21605 19614 ft 354 kts 313°
2026-04-27 13:44 62.40636 -8.25480 20178 ft 357 kts 313°
2026-04-27 13:44 62.42368 -8.29405 20764 ft 360 kts 313°
2026-04-27 13:44 62.44097 -8.33344 21338 ft 362 kts 313°
2026-04-27 13:44 62.45820 -8.37278 21902 ft 365 kts 313°
2026-04-27 13:45 62.47592 -8.41326 22472 ft 368 kts 313°
2026-04-27 13:45 62.49344 -8.45328 23024 ft 371 kts 313°
2026-04-27 13:45 62.51134 -8.49418 23574 ft 373 kts 313°
2026-04-27 13:45 62.52906 -8.53468 24067 ft 376 kts 313°
2026-04-27 13:46 62.54717 -8.57625 24520 ft 378 kts 313°
2026-04-27 13:46 62.56510 -8.61757 24983 ft 379 kts 313°
2026-04-27 13:46 62.57727 -8.64563 25297 ft 380 kts 312°
2026-04-27 13:46 62.59518 -8.68698 25734 ft 381 kts 312°
2026-04-27 13:47 62.61949 -8.74316 26299 ft 383 kts 312°
2026-04-27 13:47 62.63783 -8.78558 26722 ft 384 kts 313°
2026-04-27 13:47 62.64994 -8.81356 27001 ft 385 kts 313°
2026-04-27 13:47 62.67451 -8.87065 27555 ft 387 kts 312°
2026-04-27 13:48 62.68674 -8.89919 27823 ft 387 kts 312°
2026-04-27 13:48 62.70508 -8.94205 28168 ft 390 kts 312°
2026-04-27 13:48 62.72374 -8.98573 28510 ft 392 kts 312°
2026-04-27 13:48 62.74226 -9.02909 28874 ft 394 kts 312°
2026-04-27 13:49 62.76115 -9.07339 29235 ft 396 kts 312°
2026-04-27 13:49 62.77993 -9.11753 29593 ft 397 kts 312°
2026-04-27 13:49 62.79863 -9.16164 29936 ft 399 kts 312°
2026-04-27 13:49 62.81752 -9.20632 30272 ft 401 kts 312°
2026-04-27 13:50 62.83649 -9.25123 30586 ft 402 kts 311°
2026-04-27 13:50 62.85543 -9.29603 30839 ft 403 kts 311°
2026-04-27 13:50 62.87446 -9.34114 31117 ft 404 kts 311°
2026-04-27 13:50 62.89366 -9.38678 31384 ft 405 kts 311°
2026-04-27 13:51 62.91261 -9.43202 31640 ft 406 kts 311°
2026-04-27 13:51 62.93179 -9.47800 31969 ft 404 kts 311°
2026-04-27 13:51 62.95050 -9.52296 32330 ft 402 kts 311°
2026-04-27 13:51 62.96941 -9.56842 32701 ft 400 kts 311°
2026-04-27 13:52 62.98829 -9.61380 33067 ft 398 kts 311°
2026-04-27 13:52 63.00678 -9.65821 33430 ft 396 kts 311°
2026-04-27 13:52 63.02544 -9.70313 33806 ft 394 kts 311°
2026-04-27 13:52 63.04368 -9.74721 34173 ft 392 kts 311°
2026-04-27 13:53 63.08024 -9.83619 34770 ft 389 kts 310°
2026-04-27 13:53 63.09861 -9.88099 34997 ft 391 kts 309°
2026-04-27 13:53 63.11666 -9.92511 35201 ft 392 kts 310°
2026-04-27 13:54 63.13509 -9.97018 35424 ft 392 kts 310°
2026-04-27 13:54 63.15331 -10.01483 35658 ft 392 kts 310°
2026-04-27 13:54 63.17154 -10.05958 35889 ft 392 kts 310°
2026-04-27 13:54 63.18980 -10.10439 36119 ft 391 kts 310°
2026-04-27 13:55 63.20802 -10.14919 36252 ft 391 kts 310°
2026-04-27 13:55 63.24411 -10.23832 36276 ft 388 kts 310°
2026-04-27 13:56 63.28012 -10.32763 36273 ft 387 kts 310°
2026-04-27 13:56 63.31598 -10.41705 36268 ft 387 kts 310°
2026-04-27 13:57 63.35162 -10.50647 36269 ft 387 kts 309°
2026-04-27 13:57 63.38750 -10.59676 36279 ft 388 kts 309°
2026-04-27 13:58 63.42305 -10.68650 36275 ft 388 kts 309°
2026-04-27 13:58 63.45893 -10.77738 36252 ft 387 kts 309°
2026-04-27 13:59 63.49460 -10.86792 36242 ft 388 kts 308°
2026-04-27 13:59 63.53013 -10.95870 36240 ft 389 kts 308°
2026-04-27 14:00 63.56578 -11.05023 36235 ft 389 kts 308°
2026-04-27 14:00 63.60144 -11.14232 36237 ft 390 kts 308°
2026-04-27 14:01 63.63691 -11.23417 36256 ft 390 kts 308°
2026-04-27 14:01 63.67245 -11.32629 36243 ft 390 kts 308°
2026-04-27 14:02 63.70812 -11.41925 36240 ft 390 kts 308°
2026-04-27 14:02 63.74355 -11.51191 36237 ft 390 kts 308°
2026-04-27 14:03 63.77901 -11.60509 36220 ft 390 kts 308°
2026-04-27 14:03 63.81423 -11.69817 36217 ft 390 kts 307°
2026-04-27 14:04 63.84938 -11.79146 36211 ft 390 kts 307°
2026-04-27 14:04 63.88464 -11.88546 36216 ft 391 kts 306°
2026-04-27 14:05 63.91983 -11.97956 36191 ft 392 kts 306°
2026-04-27 14:05 63.95522 -12.07436 36195 ft 392 kts 306°
2026-04-27 14:06 63.99025 -12.16897 36176 ft 393 kts 306°
2026-04-27 14:06 64.02536 -12.26427 36184 ft 393 kts 306°
2026-04-27 14:07 64.06051 -12.35986 36181 ft 393 kts 306°
2026-04-27 14:07 64.09560 -12.45575 36180 ft 393 kts 306°
2026-04-27 14:08 64.13064 -12.55194 36181 ft 393 kts 306°
2026-04-27 14:08 64.16562 -12.64839 36182 ft 393 kts 306°
2026-04-27 14:09 64.20057 -12.74498 36175 ft 394 kts 306°
2026-04-27 14:09 64.23548 -12.84182 36171 ft 394 kts 304°
2026-04-27 14:10 64.27045 -12.93951 36169 ft 394 kts 304°
2026-04-27 14:10 64.30516 -13.03687 36164 ft 394 kts 304°
2026-04-27 14:11 64.34001 -13.13503 36158 ft 395 kts 304°
2026-04-27 14:11 64.37468 -13.23299 36158 ft 395 kts 304°
2026-04-27 14:12 64.40937 -13.33169 36164 ft 395 kts 304°
2026-04-27 14:12 64.44395 -13.43051 36160 ft 395 kts 304°
2026-04-27 14:13 64.47854 -13.52989 36158 ft 395 kts 304°
2026-04-27 14:13 64.51311 -13.62945 36140 ft 395 kts 304°
2026-04-27 14:14 64.54732 -13.72860 36137 ft 395 kts 304°
2026-04-27 14:14 64.58180 -13.82885 36139 ft 395 kts 302°
2026-04-27 14:15 64.61600 -13.92866 36121 ft 396 kts 302°
2026-04-27 14:15 64.65040 -14.02960 36121 ft 397 kts 303°
2026-04-27 14:16 64.68481 -14.13080 36116 ft 397 kts 303°
2026-04-27 14:16 64.71882 -14.23155 36105 ft 397 kts 302°
2026-04-27 14:17 64.75315 -14.33341 36108 ft 397 kts 302°
2026-04-27 14:17 64.78736 -14.43552 36083 ft 397 kts 302°
2026-04-27 14:18 64.82123 -14.53716 36082 ft 397 kts 302°
2026-04-27 14:18 64.85533 -14.63996 35856 ft 398 kts 302°
2026-04-27 14:18 64.87231 -14.69130 35601 ft 398 kts 302°
2026-04-27 14:19 64.88921 -14.74253 35373 ft 398 kts 302°
2026-04-27 14:19 64.90614 -14.79393 35116 ft 397 kts 302°
2026-04-27 14:19 64.92316 -14.84567 34772 ft 396 kts 302°
2026-04-27 14:19 64.93990 -14.89686 34059 ft 398 kts 301°
2026-04-27 14:20 64.95679 -14.94862 33552 ft 393 kts 300°
2026-04-27 14:20 64.97338 -14.99950 33050 ft 387 kts 300°
2026-04-27 14:20 64.98967 -15.04951 32537 ft 382 kts 300°
2026-04-27 14:20 65.00572 -15.09884 32056 ft 378 kts 300°
2026-04-27 14:21 65.02158 -15.14777 31575 ft 375 kts 300°
2026-04-27 14:21 65.03744 -15.19683 31093 ft 371 kts 300°
2026-04-27 14:21 65.05305 -15.24532 30617 ft 368 kts 300°
2026-04-27 14:21 65.06852 -15.29343 30157 ft 365 kts 300°
2026-04-27 14:22 65.08384 -15.34117 29629 ft 362 kts 300°
2026-04-27 14:22 65.09897 -15.38836 29178 ft 358 kts 300°
2026-04-27 14:22 65.11398 -15.43527 28738 ft 354 kts 300°
2026-04-27 14:22 65.12871 -15.48146 28301 ft 351 kts 300°
2026-04-27 14:23 65.14334 -15.52744 27887 ft 348 kts 300°
2026-04-27 14:23 65.15777 -15.57298 27460 ft 344 kts 300°
2026-04-27 14:23 65.17216 -15.61847 27045 ft 341 kts 300°
2026-04-27 14:23 65.18638 -15.66344 26645 ft 338 kts 300°
2026-04-27 14:24 65.20045 -15.70797 26244 ft 336 kts 300°
2026-04-27 14:24 65.21435 -15.75195 25852 ft 334 kts 300°
2026-04-27 14:24 65.22838 -15.79650 25455 ft 333 kts 300°
2026-04-27 14:24 65.24227 -15.84076 25061 ft 332 kts 300°
2026-04-27 14:25 65.25600 -15.88465 24654 ft 330 kts 300°
2026-04-27 14:25 65.26963 -15.92825 24275 ft 329 kts 300°
2026-04-27 14:25 65.28338 -15.97232 23857 ft 328 kts 300°
2026-04-27 14:25 65.29702 -16.01618 23427 ft 328 kts 299°
2026-04-27 14:26 65.30611 -16.04547 23127 ft 327 kts 299°
2026-04-27 14:26 65.31947 -16.08857 22719 ft 325 kts 299°
2026-04-27 14:26 65.33282 -16.13168 22316 ft 323 kts 299°
2026-04-27 14:26 65.34632 -16.17526 21901 ft 321 kts 299°
2026-04-27 14:27 65.35943 -16.21768 21484 ft 319 kts 299°
2026-04-27 14:27 65.37267 -16.26057 21080 ft 316 kts 299°
2026-04-27 14:27 65.38568 -16.30279 20680 ft 315 kts 299°
2026-04-27 14:27 65.39868 -16.34509 20266 ft 314 kts 298°
2026-04-27 14:28 65.41160 -16.38717 19863 ft 313 kts 298°
2026-04-27 14:28 65.42445 -16.42915 19462 ft 312 kts 298°
2026-04-27 14:28 65.43724 -16.47111 19064 ft 310 kts 298°
2026-04-27 14:28 65.45001 -16.51309 18663 ft 309 kts 298°
2026-04-27 14:29 65.46269 -16.55491 18268 ft 308 kts 298°
2026-04-27 14:29 65.47519 -16.59610 17842 ft 307 kts 298°
2026-04-27 14:29 65.48778 -16.63760 17452 ft 305 kts 298°
2026-04-27 14:29 65.50025 -16.67871 17057 ft 302 kts 298°
2026-04-27 14:30 65.51258 -16.71950 16675 ft 300 kts 298°
2026-04-27 14:30 65.52484 -16.76025 16304 ft 298 kts 298°
2026-04-27 14:30 65.53685 -16.80030 15939 ft 297 kts 297°
2026-04-27 14:30 65.54899 -16.84092 15569 ft 296 kts 297°
2026-04-27 14:31 65.56091 -16.88081 15206 ft 295 kts 297°
2026-04-27 14:31 65.57295 -16.92108 14827 ft 294 kts 297°
2026-04-27 14:31 65.58495 -16.96129 14459 ft 294 kts 297°
2026-04-27 14:31 65.59680 -17.00097 14095 ft 293 kts 297°
2026-04-27 14:32 65.60875 -17.04104 13712 ft 293 kts 297°
2026-04-27 14:32 65.62063 -17.08105 13336 ft 292 kts 297°
2026-04-27 14:32 65.63249 -17.12104 12945 ft 291 kts 297°
2026-04-27 14:32 65.64427 -17.16077 12577 ft 290 kts 297°
2026-04-27 14:33 65.65598 -17.20040 12183 ft 288 kts 297°
2026-04-27 14:33 65.66760 -17.23997 11795 ft 287 kts 296°
2026-04-27 14:33 65.67902 -17.27885 11411 ft 285 kts 297°
2026-04-27 14:33 65.69056 -17.31813 11043 ft 284 kts 297°
2026-04-27 14:34 65.70208 -17.35727 10685 ft 283 kts 297°
2026-04-27 14:34 65.71373 -17.39516 10324 ft 283 kts 298°
2026-04-27 14:34 65.72576 -17.43304 10004 ft 280 kts 299°
2026-04-27 14:34 65.73766 -17.47006 9907 ft 277 kts 299°
2026-04-27 14:35 65.74953 -17.50709 9693 ft 278 kts 299°
2026-04-27 14:35 65.76145 -17.54473 9186 ft 280 kts 299°
2026-04-27 14:35 65.77348 -17.58304 8819 ft 284 kts 298°
2026-04-27 14:35 65.78526 -17.62042 8571 ft 279 kts 298°
2026-04-27 14:36 65.79704 -17.65780 8206 ft 276 kts 298°
2026-04-27 14:36 65.80860 -17.69473 7817 ft 274 kts 298°
2026-04-27 14:36 65.82015 -17.73167 7578 ft 266 kts 298°
2026-04-27 14:36 65.83125 -17.76702 7404 ft 256 kts 297°
2026-04-27 14:37 65.84094 -17.80172 6985 ft 243 kts 287°
2026-04-27 14:37 65.84671 -17.83906 6518 ft 230 kts 274°
2026-04-27 14:37 65.85011 -17.87684 6073 ft 224 kts 274°
2026-04-27 14:37 65.85348 -17.91377 5721 ft 217 kts 274°
2026-04-27 14:38 65.85673 -17.94884 5391 ft 204 kts 273°
2026-04-27 14:38 65.85828 -17.98117 5130 ft 186 kts 262°
2026-04-27 14:38 65.85649 -18.01191 4870 ft 181 kts 249°
2026-04-27 14:38 65.85272 -18.04063 4642 ft 175 kts 248°
2026-04-27 14:39 65.84903 -18.06914 4343 ft 177 kts 248°
2026-04-27 14:39 65.84378 -18.09565 4047 ft 173 kts 229°
2026-04-27 14:39 65.83464 -18.11393 3777 ft 169 kts 206°
2026-04-27 14:39 65.82325 -18.12120 3528 ft 172 kts 184°
2026-04-27 14:40 65.81135 -18.11827 3271 ft 175 kts 175°
2026-04-27 14:40 65.79928 -18.11430 3005 ft 174 kts 176°
2026-04-27 14:40 65.78739 -18.11043 2751 ft 170 kts 175°
2026-04-27 14:40 65.77572 -18.10668 2488 ft 165 kts 174°
2026-04-27 14:41 65.76450 -18.10308 2208 ft 161 kts 173°
2026-04-27 14:41 65.75382 -18.09967 1976 ft 148 kts 173°
2026-04-27 14:41 65.74416 -18.09660 1771 ft 135 kts 173°
2026-04-27 14:41 65.73491 -18.09367 1565 ft 131 kts 172°
2026-04-27 14:42 65.72603 -18.09088 1371 ft 127 kts 171°
2026-04-27 14:42 65.71727 -18.08812 1189 ft 127 kts 171°
2026-04-27 14:42 65.70856 -18.08536 997 ft 126 kts 171°
2026-04-27 14:42 65.69999 -18.08263 800 ft 126 kts 172°
2026-04-27 14:43 65.69123 -18.07984 606 ft 125 kts 173°
2026-04-27 14:43 65.68275 -18.07716 421 ft 121 kts 173°
2026-04-27 14:43 65.67444 -18.07567 222 ft 121 kts 174°
2026-04-27 14:43 65.66609 -18.07386 41 ft 120 kts 175°
2026-04-27 14:44 65.65911 -18.07253 21 ft 58 kts 176°
2026-04-27 14:44 65.65661 -18.07207 21 ft 19 kts 175°
2026-04-27 14:44 65.65560 -18.07186 21 ft 14 kts 175°
2026-04-27 14:44 65.65479 -18.07224 21 ft 8 kts 251°
2026-04-27 14:45 65.65478 -18.07352 21 ft 5 kts 267°
2026-04-27 14:45 65.65464 -18.07416 22 ft 4 kts 206°
2026-04-27 14:45 65.65430 -18.07413 24 ft 3 kts 175°
2026-04-27 14:45 65.65420 -18.07438 21 ft 2 kts 264°
2026-04-27 14:46 65.65419 -18.07466 22 ft 1 kts 267°
2026-04-27 14:46 65.65423 -18.07477 22 ft 0 kts 310°
2026-04-27 14:46 65.65426 -18.07478 22 ft 0 kts 330°
2026-04-27 14:47 65.65423 -18.07484 23 ft 0 kts 354°